| time (UTC) | temp C | wind direction | speed KPH | gust KPH | rain 1hr cm | rain 24hr cm | rain mn cm | humidity % | barometer mb |
| 20260505222457 | 12 | 173 | 0.0 | 6.4 | 0.00 | 0.00 | 0.00 | 58 | 1006.2 |
| 20260505221454 | 12 | 161 | 3.2 | 19.3 | 0.00 | 0.00 | 0.00 | 57 | 1006.2 |
| 20260505220452 | 12 | 239 | 0.0 | 14.5 | 0.00 | 0.00 | 0.00 | 57 | 1006.2 |
| 20260505215457 | 12 | 258 | 3.2 | 17.7 | 0.00 | 0.00 | 0.00 | 57 | 1006.3 |
| 20260505214457 | 12 | 116 | 3.2 | 11.3 | 0.00 | 0.00 | 0.00 | 57 | 1006.3 |
| 20260505213452 | 12 | 307 | 3.2 | 11.3 | 0.00 | 0.00 | 0.00 | 57 | 1006.2 |
| 20260505212454 | 12 | 199 | 3.2 | 11.3 | 0.00 | 0.00 | 0.00 | 56 | 1006.2 |
| 20260505211456 | 12 | 333 | 3.2 | 14.5 | 0.00 | 0.00 | 0.00 | 59 | 1006.3 |
| 20260505210502 | 12 | 172 | 3.2 | 8.0 | 0.00 | 0.00 | 0.00 | 62 | 1006.3 |
| 20260505205451 | 12 | 142 | 3.2 | 17.7 | 0.00 | 0.00 | 0.00 | 65 | 1006.3 |
| 20260505204451 | 12 | 153 | 0.0 | 11.3 | 0.00 | 0.00 | 0.00 | 64 | 1006.2 |
| 20260505203448 | 12 | 177 | 0.0 | 8.0 | 0.00 | 0.00 | 0.00 | 64 | 1006.2 |
| 20260505202449 | 12 | 217 | 0.0 | 11.3 | 0.00 | 0.00 | 0.00 | 63 | 1006.2 |
| 20260505201450 | 12 | 169 | 3.2 | 8.0 | 0.00 | 0.00 | 0.00 | 62 | 1006.2 |
| 20260505200445 | 12 | 182 | 0.0 | 8.0 | 0.00 | 0.00 | 0.00 | 63 | 1006.3 |
| 20260505195446 | 12 | 278 | 3.2 | 14.5 | 0.00 | 0.00 | 0.00 | 62 | 1006.4 |
| 20260505194446 | 12 | 292 | 3.2 | 8.0 | 0.00 | 0.00 | 0.00 | 62 | 1006.3 |
| 20260505193449 | 12 | 186 | 3.2 | 14.5 | 0.00 | 0.00 | 0.00 | 62 | 1006.4 |
| 20260505192446 | 12 | 309 | 3.2 | 17.7 | 0.00 | 0.00 | 0.00 | 63 | 1006.5 |
| 20260505191440 | 12 | 311 | 3.2 | 17.7 | 0.00 | 0.00 | 0.00 | 63 | 1006.4 |
| 20260505190440 | 12 | 175 | 3.2 | 8.0 | 0.00 | 0.00 | 0.00 | 63 | 1006.5 |
| 20260505185439 | 12 | 270 | 3.2 | 11.3 | 0.00 | 0.00 | 0.00 | 62 | 1006.5 |
| 20260505184440 | 12 | 243 | 3.2 | 17.7 | 0.00 | 0.00 | 0.00 | 63 | 1006.4 |
| 20260505183440 | 12 | 251 | 3.2 | 17.7 | 0.00 | 0.00 | 0.00 | 63 | 1006.2 |
| 20260505182438 | 12 | 242 | 6.4 | 8.0 | 0.00 | 0.00 | 0.00 | 62 | 1006.0 |
| 20260505181439 | 12 | 331 | 6.4 | 22.5 | 0.00 | 0.00 | 0.00 | 65 | 1005.8 |
| 20260505180437 | 12 | 0 | 3.2 | 14.5 | 0.00 | 0.00 | 0.00 | 66 | 1005.8 |
| 20260505175440 | 12 | 151 | 3.2 | 14.5 | 0.00 | 0.00 | 0.00 | 69 | 1005.7 |
| 20260505174436 | 11 | 162 | 3.2 | 14.5 | 0.00 | 0.00 | 0.00 | 70 | 1005.6 |
| 20260505173441 | 11 | 216 | 6.4 | 17.7 | 0.00 | 0.00 | 0.00 | 71 | 1005.8 |
| 20260505172435 | 11 | 190 | 6.4 | 19.3 | 0.00 | 0.00 | 0.00 | 72 | 1005.6 |
| 20260505171437 | 11 | 160 | 3.2 | 17.7 | 0.00 | 0.00 | 0.00 | 75 | 1005.8 |
| 20260505170435 | 11 | 5 | 6.4 | 17.7 | 0.00 | 0.00 | 0.00 | 75 | 1005.7 |
| 20260505165439 | 11 | 230 | 3.2 | 19.3 | 0.00 | 0.00 | 0.00 | 76 | 1005.9 |
| 20260505164436 | 10 | 186 | 6.4 | 19.3 | 0.00 | 0.00 | 0.00 | 79 | 1005.9 |
| 20260505163436 | 10 | 174 | 3.2 | 11.3 | 0.00 | 0.00 | 0.00 | 80 | 1005.7 |
| 20260505162435 | 10 | 165 | 3.2 | 6.4 | 0.00 | 0.00 | 0.00 | 80 | 1005.9 |
| 20260505161437 | 10 | 180 | 3.2 | 8.0 | 0.00 | 0.00 | 0.00 | 80 | 1006.0 |
| 20260505160437 | 10 | 167 | 3.2 | 8.0 | 0.00 | 0.00 | 0.00 | 78 | 1005.9 |
| 20260505152435 | 10 | 309 | 3.2 | 8.0 | 0.00 | 0.00 | 0.00 | 72 | 1006.0 |
| 20260505151436 | 11 | 340 | 3.2 | 8.0 | 0.00 | 0.00 | 0.00 | 71 | 1005.6 |
| 20260505150430 | 11 | 333 | 3.2 | 8.0 | 0.00 | 0.00 | 0.00 | 72 | 1005.6 |
| 20260505140429 | 11 | 317 | 3.2 | 8.0 | 0.00 | 0.00 | 0.00 | 72 | 1005.0 |
| 20260505124421 | 11 | 87 | 3.2 | 11.3 | 0.00 | 0.00 | 0.00 | 75 | 1003.1 |
| 20260505123423 | 11 | 336 | 3.2 | 11.3 | 0.00 | 0.00 | 0.00 | 76 | 1003.2 |
| 20260505122422 | 11 | 333 | 3.2 | 14.5 | 0.00 | 0.00 | 0.00 | 78 | 1002.9 |
| 20260505121426 | 12 | 331 | 6.4 | 14.5 | 0.00 | 0.00 | 0.00 | 80 | 1002.8 |
| 20260505120417 | 12 | 320 | 3.2 | 14.5 | 0.00 | 0.00 | 0.00 | 79 | 1002.8 |
| 20260505115415 | 13 | 335 | 3.2 | 8.0 | 0.00 | 0.00 | 0.00 | 78 | 1002.4 |
| 20260505114418 | 13 | 241 | 3.2 | 14.5 | 0.00 | 0.00 | 0.00 | 78 | 1002.4 |
| 20260505113416 | 13 | 173 | 0.0 | 8.0 | 0.00 | 0.00 | 0.00 | 79 | 1002.0 |
| 20260505112413 | 13 | 188 | 0.0 | 6.4 | 0.00 | 0.00 | 0.00 | 80 | 1001.7 |
| 20260505111416 | 13 | 166 | 0.0 | 11.3 | 0.00 | 0.00 | 0.00 | 82 | 1001.4 |
| 20260505110412 | 13 | 124 | 0.0 | 8.0 | 0.00 | 0.00 | 0.00 | 83 | 1001.2 |
| 20260505101406 | 13 | 200 | 0.0 | 8.0 | 0.00 | 0.00 | 0.00 | 84 | 1000.2 |
| 20260505100408 | 13 | 229 | 3.2 | 11.3 | 0.00 | 0.00 | 0.00 | 83 | 1000.1 |
| 20260505095406 | 13 | 216 | 3.2 | 14.5 | 0.00 | 0.00 | 0.00 | 83 | 1000.1 |
| 20260505094404 | 14 | 220 | 3.2 | 11.3 | 0.00 | 0.00 | 0.00 | 82 | 1000.0 |
| 20260505093401 | 14 | 263 | 3.2 | 29.0 | 0.00 | 0.00 | 0.00 | 82 | 1000.0 |
| 20260505092402 | 14 | 237 | 3.2 | 14.5 | 0.00 | 0.00 | 0.00 | 81 | 1000.1 |
| 20260505091401 | 14 | 217 | 3.2 | 11.3 | 0.00 | 0.00 | 0.00 | 79 | 999.9 |
| 20260505090359 | 15 | 238 | 6.4 | 19.3 | 0.00 | 0.00 | 0.00 | 78 | 999.8 |
| 20260505085359 | 15 | 222 | 6.4 | 25.7 | 0.00 | 0.00 | 0.00 | 77 | 999.8 |
| 20260505084359 | 15 | 251 | 3.2 | 19.3 | 0.00 | 0.00 | 0.00 | 75 | 999.7 |
| 20260505083358 | 15 | 178 | 3.2 | 14.5 | 0.00 | 0.00 | 0.00 | 75 | 999.4 |
| 20260505082358 | 15 | 265 | 3.2 | 29.0 | 0.00 | 0.00 | 0.00 | 74 | 999.3 |
| 20260505081356 | 15 | 234 | 3.2 | 19.3 | 0.00 | 0.00 | 0.00 | 73 | 999.4 |
| 20260505080358 | 15 | 212 | 3.2 | 8.0 | 0.00 | 0.00 | 0.00 | 73 | 999.4 |
| 20260505075359 | 15 | 153 | 3.2 | 19.3 | 0.00 | 0.00 | 0.00 | 73 | 999.2 |
| 20260505074356 | 15 | 137 | 3.2 | 11.3 | 0.00 | 0.00 | 0.00 | 73 | 999.0 |
| 20260505073355 | 15 | 219 | 3.2 | 17.7 | 0.00 | 0.00 | 0.00 | 73 | 998.7 |
| 20260505072357 | 15 | 241 | 3.2 | 14.5 | 0.00 | 0.00 | 0.00 | 74 | 998.5 |
| 20260505071354 | 15 | 201 | 0.0 | 6.4 | 0.00 | 0.00 | 0.00 | 76 | 998.5 |
| 20260505070354 | 15 | 286 | 0.0 | 14.5 | 0.00 | 0.00 | 0.00 | 77 | 998.7 |
| 20260505065352 | 15 | 255 | 3.2 | 11.3 | 0.00 | 0.00 | 0.00 | 75 | 999.0 |
| 20260505064355 | 15 | 138 | 3.2 | 19.3 | 0.00 | 0.00 | 0.00 | 75 | 998.5 |
| 20260505063352 | 15 | 202 | 3.2 | 14.5 | 0.00 | 0.00 | 0.00 | 74 | 998.8 |
| 20260505062353 | 15 | 276 | 6.4 | 22.5 | 0.00 | 0.00 | 0.00 | 74 | 999.2 |
| 20260505061353 | 16 | 237 | 6.4 | 17.7 | 0.00 | 0.00 | 0.00 | 74 | 999.3 |
| 20260505060353 | 16 | 213 | 6.4 | 19.3 | 0.00 | 0.00 | 0.00 | 73 | 999.4 |
| 20260505055355 | 16 | 162 | 6.4 | 17.7 | 0.00 | 0.00 | 0.00 | 71 | 999.0 |
| 20260505054352 | 16 | 157 | 3.2 | 17.7 | 0.00 | 0.00 | 0.00 | 70 | 999.2 |
| 20260505053358 | 17 | 178 | 6.4 | 17.7 | 0.00 | 0.00 | 0.00 | 69 | 999.1 |
| 20260505052357 | 17 | 259 | 6.4 | 25.7 | 0.00 | 0.00 | 0.00 | 68 | 999.1 |
| 20260505051354 | 17 | 234 | 6.4 | 19.3 | 0.00 | 0.00 | 0.00 | 68 | 998.7 |
| 20260505050356 | 18 | 194 | 8.0 | 46.7 | 0.00 | 0.00 | 0.00 | 70 | 999.2 |
| 20260505041354 | 17 | 194 | 8.0 | 17.7 | 0.00 | 0.00 | 0.00 | 71 | 998.6 |
| 20260505040354 | 17 | 190 | 8.0 | 22.5 | 0.00 | 0.00 | 0.00 | 71 | 998.6 |
| 20260505035354 | 17 | 153 | 6.4 | 17.7 | 0.00 | 0.00 | 0.00 | 72 | 998.7 |
| 20260505034353 | 17 | 234 | 6.4 | 19.3 | 0.00 | 0.00 | 0.00 | 73 | 998.7 |
| 20260505033354 | 17 | 163 | 8.0 | 19.3 | 0.00 | 0.00 | 0.00 | 73 | 998.6 |
| 20260505032349 | 17 | 229 | 6.4 | 17.7 | 0.00 | 0.00 | 0.00 | 74 | 998.7 |
| 20260505031349 | 17 | 171 | 6.4 | 14.5 | 0.00 | 0.00 | 0.00 | 75 | 998.8 |
| 20260505030350 | 16 | 175 | 6.4 | 17.7 | 0.00 | 0.00 | 0.00 | 75 | 999.0 |
| 20260505025350 | 17 | 169 | 6.4 | 17.7 | 0.00 | 0.00 | 0.00 | 75 | 999.2 |
| 20260505024351 | 17 | 185 | 6.4 | 22.5 | 0.00 | 0.00 | 0.00 | 75 | 999.2 |
| 20260505023351 | 17 | 234 | 6.4 | 22.5 | 0.00 | 0.00 | 0.00 | 75 | 999.1 |
| 20260505022350 | 16 | 179 | 6.4 | 19.3 | 0.00 | 0.00 | 0.00 | 76 | 999.2 |
| 20260505021351 | 16 | 168 | 3.2 | 11.3 | 0.00 | 0.00 | 0.00 | 77 | 999.1 |
| 20260505020355 | 16 | 155 | 6.4 | 17.7 | 0.00 | 0.00 | 0.00 | 77 | 999.1 |
| 20260505015350 | 16 | 163 | 6.4 | 17.7 | 0.00 | 0.00 | 0.00 | 76 | 999.1 |
| 20260505014349 | 16 | 172 | 6.4 | 17.7 | 0.00 | 0.00 | 0.00 | 76 | 999.2 |
| 20260505013351 | 16 | 176 | 6.4 | 19.3 | 0.00 | 0.00 | 0.00 | 77 | 999.0 |
| 20260505012349 | 16 | 156 | 6.4 | 14.5 | 0.00 | 0.00 | 0.00 | 78 | 998.8 |
| 20260505011349 | 16 | 153 | 6.4 | 17.7 | 0.00 | 0.00 | 0.00 | 77 | 998.6 |
| 20260505010350 | 16 | 185 | 6.4 | 17.7 | 0.00 | 0.00 | 0.00 | 75 | 998.6 |
| 20260505005354 | 17 | 194 | 8.0 | 25.7 | 0.00 | 0.00 | 0.00 | 73 | 998.6 |
| 20260505004354 | 18 | 237 | 11.3 | 29.0 | 0.00 | 0.00 | 0.00 | 68 | 998.6 |
| 20260505003349 | 18 | 165 | 11.3 | 37.0 | 0.00 | 0.00 | 0.00 | 63 | 998.3 |
| 20260505002349 | 20 | 194 | 11.3 | 35.4 | 0.00 | 0.00 | 0.00 | 59 | 998.3 |
| 20260505001349 | 21 | 247 | 6.4 | 37.0 | 0.00 | 0.00 | 0.00 | 55 | 998.4 |
| 20260505000351 | 21 | 168 | 6.4 | 17.7 | 0.00 | 0.00 | 0.00 | 53 | 997.9 |
| 20260504235348 | 22 | 189 | 3.2 | 17.7 | 0.00 | 0.00 | 0.00 | 51 | 997.9 |
| 20260504234351 | 22 | 196 | 3.2 | 17.7 | 0.00 | 0.00 | 0.00 | 47 | 997.9 |
| 20260504233351 | 22 | 227 | 6.4 | 14.5 | 0.00 | 0.00 | 0.00 | 46 | 998.0 |
| 20260504232352 | 22 | 154 | 6.4 | 17.7 | 0.00 | 0.00 | 0.00 | 46 | 998.1 |
| 20260504231345 | 22 | 238 | 8.0 | 25.7 | 0.00 | 0.00 | 0.00 | 46 | 998.0 |
| 20260504230346 | 22 | 175 | 8.0 | 29.0 | 0.00 | 0.00 | 0.00 | 44 | 998.0 |
| 20260504225342 | 23 | 225 | 8.0 | 25.7 | 0.00 | 0.00 | 0.00 | 44 | 998.0 |
| 20260504224343 | 23 | 252 | 6.4 | 19.3 | 0.00 | 0.00 | 0.00 | 42 | 998.1 |
| 20260504223347 | 23 | 312 | 6.4 | 19.3 | 0.00 | 0.00 | 0.00 | 41 | 998.4 |